This demonstration page uses our WeatherBlox Daily Observations layout. Learn more.

Left ArrowRight Arrow

Hourly Observations for September 22, 2018

Temp ( °F °C ) Dew Point ( °F °C ) Humidity (%) Winds ( mph kmh ) Pressure ( in mb ) Visibility ( mi km ) Precip ( " mm )
12:15 am 00:15 Cloudy 72 22 72 22 100 100 SSW 8 13 30.06 1018 10 16 0.00 0.00
12:35 am 00:35 Partly Cloudy 70 21 70 21 100 100 SSW 7 11 30.03 1017 10 16 0.00 0.00
12:55 am 00:55 Clear 70 21 70 21 100 100 SSW 7 11 30.03 1017 10 16 0.00 0.00
1:15 am 01:15 Clear 70 21 70 21 100 100 SSW 5 7 30.03 1017 10 16 0.00 0.00
1:35 am 01:35 Clear 70 21 70 21 100 100 S 6 9 30.03 1017 10 16 0.00 0.00
1:55 am 01:55 Clear 68 20 68 20 100 100 SSW 5 7 30.03 1017 7 11 0.00 0.00
2:15 am 02:15 Clear 68 20 68 20 100 100 SSW 5 7 30.03 1017 7 11 0.00 0.00
2:35 am 02:35 Clear 68 20 68 20 100 100 SSW 5 7 30.03 1017 7 11 0.00 0.00
2:55 am 02:55 Partly Cloudy 68 20 68 20 100 100 S 5 7 30.00 1016 7 11 0.00 0.00
3:15 am 03:15 Partly Cloudy 68 20 68 20 100 100 Calm 30.00 1016 7 11 0.00 0.00
3:35 am 03:35 Mostly Cloudy 68 20 68 20 100 100 S 3 6 30.00 1016 7 11 0.00 0.00
3:55 am 03:55 Mostly Cloudy with Mist and Fog 68 20 68 20 100 100 Calm 30.03 1017 5 8 0.00 0.00
4:15 am 04:15 Cloudy with Mist and Fog 68 20 68 20 100 100 N 6 9 30.03 1017 5 8 0.00 0.00
4:35 am 04:35 Cloudy 68 20 68 20 100 100 NW 3 6 30.06 1018 7 11 0.00 0.00
4:55 am 04:55 Cloudy 68 20 68 20 100 100 N 5 7 30.06 1018 7 11 0.03 0.76
5:15 am 05:15 Cloudy 68 20 68 20 100 100 NNE 3 6 30.06 1018 10 16 0.00 0.00
5:35 am 05:35 Cloudy 68 20 68 20 100 100 NW 6 9 30.06 1018 10 16 0.00 0.00
5:55 am 05:55 Mostly Cloudy 68 20 68 20 100 100 NW 3 6 30.09 1019 10 16 0.00 0.00
6:15 am 06:15 Mostly Cloudy 68 20 68 20 100 100 NNW 6 9 30.09 1019 10 16 0.00 0.00
6:35 am 06:35 Cloudy 68 20 68 20 100 100 N 7 11 30.09 1019 10 16 0.00 0.00
6:55 am 06:55 Partly Cloudy 68 20 68 20 100 100 N 8 13 30.09 1019 10 16 0.00 0.00
7:15 am 07:15 Sunny 68 20 68 20 100 100 NNE 5 7 30.12 1020 10 16 0.00 0.00
7:35 am 07:35 Partly Cloudy 68 20 68 20 100 100 N 5 7 30.12 1020 10 16 0.00 0.00
7:55 am 07:55 Partly Cloudy 70 21 66 19 88 88 N 9 15 30.12 1020 10 16 0.00 0.00
8:15 am 08:15 Sunny 70 21 64 18 83 83 N 10 17 30.12 1020 10 16 0.00 0.00
8:35 am 08:35 Partly Cloudy 70 21 63 17 78 78 N 13 20 30.12 1020 10 16 0.00 0.00
8:55 am 08:55 Mostly Cloudy 70 21 63 17 78 78 N 16 26 30.12 1020 10 16 0.00 0.00
9:15 am 09:15 Partly Cloudy 70 21 63 17 78 78 N 12 19 30.15 1021 10 16 0.00 0.00
9:35 am 09:35 Mostly Cloudy with Light Rain 70 21 63 17 78 78 N 12 19 30.15 1021 10 16 0.00 0.00
9:55 am 09:55 Cloudy with Light Rain 68 20 61 16 78 78 N 8 13 30.15 1021 10 16 0.00 0.00
10:15 am 10:15 Cloudy with Rain 66 19 61 16 83 83 N 5 7 30.15 1021 10 16 0.00 0.00
10:35 am 10:35 Cloudy with Light Rain 64 18 61 16 88 88 N 6 9 30.15 1021 10 16 0.01 0.25
10:55 am 10:55 Cloudy 66 19 61 16 83 83 N 7 11 30.18 1022 10 16 0.02 0.51
11:15 am 11:15 Cloudy with Light Rain 66 19 61 16 83 83 N 5 7 30.18 1022 10 16 0.00 0.00
11:35 am 11:35 Cloudy 68 20 61 16 78 78 N 7 11 30.18 1022 10 16 0.00 0.00
11:55 am 11:55 Cloudy 68 20 61 16 78 78 N 8 13 30.18 1022 10 16 0.00 0.00
12:15 pm 12:15 Cloudy 70 21 61 16 73 73 N 9 15 30.18 1022 10 16 0.00 0.00
12:35 pm 12:35 Mostly Cloudy 72 22 63 17 73 73 NNW 9 15 30.18 1022 10 16 0.00 0.00
12:55 pm 12:55 Cloudy 72 22 63 17 73 73 NNW 7 11 30.18 1022 10 16 0.00 0.00
1:15 pm 13:15 Mostly Cloudy 72 22 63 17 73 73 NNW 9 15 30.18 1022 10 16 0.00 0.00
1:35 pm 13:35 Mostly Cloudy 72 22 63 17 73 73 NNW 10 17 30.18 1022 10 16 0.00 0.00
1:55 pm 13:55 Mostly Cloudy 72 22 63 17 73 73 N 12 19 30.18 1022 10 16 0.00 0.00
2:15 pm 14:15 Mostly Cloudy 73 23 61 16 65 65 N 9 15 30.18 1022 10 16 0.00 0.00
2:35 pm 14:35 Mostly Cloudy 72 22 61 16 69 69 N 9 15 30.18 1022 10 16 0.00 0.00
2:55 pm 14:55 Mostly Cloudy 72 22 61 16 69 69 NNW 10 17 30.18 1022 10 16 0.00 0.00
3:15 pm 15:15 Mostly Cloudy 72 22 61 16 69 69 N 8 13 30.18 1022 10 16 0.00 0.00
3:30 pm 15:30 Cloudy 70 21 61 16 73 73 N 10 17 30.18 1022 10 16 0.00 0.00
3:55 pm 15:55 Cloudy 72 22 63 17 73 73 N 7 11 30.15 1021 10 16 0.00 0.00
4:15 pm 16:15 Cloudy 70 21 61 16 73 73 NNE 9 15 30.15 1021 10 16 0.00 0.00
4:35 pm 16:35 Cloudy 70 21 61 16 73 73 NE 7 11 30.15 1021 10 16 0.00 0.00
4:55 pm 16:55 Partly Cloudy 70 21 61 16 73 73 NE 8 13 30.18 1022 10 16 0.00 0.00
5:15 pm 17:15 Partly Cloudy 70 21 61 16 73 73 NE 9 15 30.18 1022 10 16 0.00 0.00
5:35 pm 17:35 Mostly Cloudy 70 21 61 16 73 73 NE 9 15 30.18 1022 10 16 0.00 0.00
5:55 pm 17:55 Partly Cloudy 70 21 61 16 73 73 NE 9 15 30.18 1022 10 16 0.00 0.00
6:15 pm 18:15 Sunny 68 20 61 16 78 78 NE 8 13 30.18 1022 10 16 0.00 0.00
6:35 pm 18:35 Sunny 68 20 61 16 78 78 NE 10 17 30.18 1022 10 16 0.00 0.00
6:55 pm 18:55 Sunny 66 19 59 15 78 78 NE 7 11 30.21 1023 10 16 0.00 0.00
7:15 pm 19:15 Clear 64 18 59 15 83 83 NE 7 11 30.21 1023 10 16 0.00 0.00
7:35 pm 19:35 Clear 64 18 57 14 78 78 NE 7 11 30.21 1023 10 16 0.00 0.00
7:55 pm 19:55 Clear 63 17 57 14 83 83 NE 7 11 30.21 1023 10 16 0.00 0.00
8:15 pm 20:15 Clear 63 17 55 13 77 77 NE 5 7 30.21 1023 10 16 0.00 0.00
8:35 pm 20:35 Clear 63 17 55 13 77 77 ENE 5 7 30.21 1023 10 16 0.00 0.00
8:55 pm 20:55 Clear 63 17 55 13 77 77 NE 5 7 30.21 1023 10 16 0.00 0.00
9:15 pm 21:15 Clear 63 17 55 13 77 77 NE 3 6 30.21 1023 10 16 0.00 0.00
9:35 pm 21:35 Clear 63 17 55 13 77 77 NE 5 7 30.21 1023 10 16 0.00 0.00
9:55 pm 21:55 Clear 61 16 55 13 83 83 NNE 5 7 30.24 1024 10 16 0.00 0.00
10:15 pm 22:15 Clear 61 16 55 13 83 83 NE 5 7 30.24 1024 10 16 0.00 0.00
10:35 pm 22:35 Clear 61 16 55 13 83 83 NNE 5 7 30.24 1024 10 16 0.00 0.00
10:55 pm 22:55 Clear 61 16 55 13 83 83 NNE 5 7 30.24 1024 10 16 0.00 0.00
11:15 pm 23:15 Clear 61 16 55 13 83 83 NNE 3 6 30.21 1023 10 16 0.00 0.00
11:35 pm 23:35 Clear 61 16 55 13 83 83 Calm 30.21 1023 10 16 0.00 0.00
11:55 pm 23:55 Clear 61 16 55 13 83 83 Calm 30.24 1024 10 16 0.00 0.00

Powered by AerisWeather